DW1818 Weather Reports


time (UTC)temp
F
wind
direction
speed
knots
gust
knots
rain 1hr
in
rain 24hr
in
rain mn
in
humidity
%
barometer
mb
20260509173006 53 148 0.0 0.0 0.00 0.00 0.24 100 1009.8
20260509171502 53 189 3.5 0.0 0.00 0.00 0.22 100 1010.0
20260509164553 53 181 1.7 0.0 0.00 0.00 0.17 100 1010.0
20260509163105 53 219 1.7 0.0 0.00 0.00 0.13 100 1010.1
20260509161545 53 198 2.6 0.0 0.00 0.00 0.11 100 1010.0
20260509160039 52 200 2.6 0.0 0.00 0.00 0.10 100 1010.1
20260509154542 52 202 0.9 0.0 0.00 0.00 0.09 100 1010.1
20260509153033 52 164 1.7 0.0 0.00 0.00 0.09 100 1010.3
20260509151527 52 187 3.5 0.0 0.00 0.00 0.08 100 1010.4
20260509150026 52 200 2.6 0.0 0.00 0.00 0.07 100 1010.5
20260509144519 52 181 2.6 0.0 0.00 0.00 0.06 100 1010.4
20260509143014 52 171 0.0 0.0 0.00 0.00 0.05 100 1010.5
20260509141518 52 217 1.7 0.0 0.00 0.00 0.04 100 1010.5
20260509140006 52 151 3.5 0.0 0.00 0.00 0.03 100 1010.6
20260509134501 52 193 0.0 0.0 0.00 0.00 0.03 100 1010.4
20260509133057 52 197 0.0 0.0 0.00 0.00 0.02 100 1010.3
20260509131552 52 198 0.9 0.0 0.00 0.00 0.01 100 1010.5
20260509130050 51 190 0.9 0.0 0.00 0.00 0.01 100 1010.4
20260509124547 51 195 0.0 0.0 0.00 0.00 0.00 100 1010.4
20260509123049 51 257 1.7 0.0 0.00 0.00 0.00 100 1010.4
20260509121535 50 235 3.5 0.0 0.00 0.00 0.00 100 1010.6
20260509120030 50 253 2.6 0.0 0.00 0.00 0.00 100 1010.7
20260509114526 50 248 2.6 0.0 0.00 0.00 0.00 100 1010.7
20260509113021 50 232 3.5 0.0 0.00 0.00 0.00 100 1010.6
20260509111526 50 292 2.6 0.0 0.00 0.00 0.00 100 1010.3
20260509110014 49 217 3.5 0.0 0.00 0.00 0.00 100 1010.2
20260509104523 49 242 1.7 0.0 0.00 0.00 0.00 100 1010.1
20260509103003 49 53 0.9 0.0 0.00 0.00 0.00 100 1010.0
20260509101600 49 20 2.6 0.0 0.00 0.00 0.00 100 1010.1
20260509100110 49 310 1.7 0.0 0.00 0.00 0.00 100 1010.1
20260509094554 49 60 1.7 0.0 0.00 0.00 0.00 100 1010.0
20260509093046 49 30 1.7 0.0 0.00 0.00 0.00 100 1010.1
20260509091551 49 72 1.7 0.0 0.00 0.00 0.00 100 1010.1
20260509090038 49 67 1.7 0.0 0.00 0.00 0.00 100 1010.3
20260509084533 49 247 1.7 0.0 0.00 0.00 0.00 100 1010.4
20260509083039 49 292 0.9 0.0 0.00 0.00 0.00 100 1010.5
20260509081525 49 291 0.9 0.0 0.00 0.00 0.00 100 1010.4
20260509080020 49 290 1.7 0.0 0.00 0.00 0.00 100 1010.4
20260509074516 49 19 0.9 0.0 0.00 0.00 0.00 100 1010.4
20260509073011 49 44 0.9 0.0 0.00 0.00 0.00 100 1010.4
20260509071507 49 316 1.7 0.0 0.00 0.00 0.00 100 1010.6
20260509070002 49 40 1.7 0.0 0.00 0.00 0.00 100 1010.7
20260509064558 50 60 0.9 0.0 0.00 0.00 0.00 100 1010.8
20260509063100 50 300 1.7 0.0 0.00 0.00 0.00 100 1011.1
20260509061605 50 350 1.7 0.0 0.00 0.00 0.00 100 1011.1
20260509060045 50 346 0.0 0.0 0.00 0.00 0.00 100 1011.1
20260509054550 50 342 0.9 0.0 0.00 0.00 0.00 100 1011.4
20260509053052 51 336 0.0 0.0 0.00 0.00 0.00 100 1011.7
20260509051534 51 336 0.0 0.0 0.00 0.00 0.00 100 1011.7
20260509050030 50 336 0.0 0.0 0.00 0.00 0.00 100 1011.8
20260509044524 51 19 1.7 0.0 0.00 0.00 0.00 100 1011.8
20260509043019 51 269 0.0 0.0 0.00 0.00 0.00 100 1011.8
20260509041515 51 179 1.7 0.0 0.00 0.00 0.00 100 1011.9
20260509040010 51 110 1.7 0.0 0.00 0.00 0.01 100 1011.5
20260509034506 51 325 1.7 0.0 0.00 0.00 0.01 100 1011.5
20260509033002 51 85 0.9 0.0 0.00 0.00 0.01 100 1011.5
20260509031600 52 303 4.3 0.0 0.00 0.00 0.01 100 1011.7
20260509030053 52 178 3.5 0.0 0.00 0.00 0.01 100 1011.7
20260509024551 51 319 3.5 0.0 0.00 0.00 0.01 100 1011.7
20260509023044 52 340 1.7 0.0 0.00 0.00 0.01 100 1011.5
20260509021540 52 164 0.9 0.0 0.00 0.00 0.01 100 1011.9
20260509020038 52 170 3.5 0.0 0.00 0.00 0.01 100 1011.8
20260509014534 52 326 3.5 0.0 0.00 0.00 0.01 100 1011.4
20260509013027 52 327 1.7 0.0 0.00 0.00 0.01 100 1011.4
20260509011523 52 216 0.9 0.0 0.00 0.00 0.01 100 1011.4
20260509010024 53 257 0.0 0.0 0.00 0.00 0.01 100 1011.4
20260509004528 53 257 0.0 0.0 0.00 0.00 0.01 100 1011.2
20260509003010 53 257 0.9 0.0 0.00 0.00 0.01 100 1011.2
20260509001505 53 207 0.9 0.0 0.00 0.00 0.01 100 1011.2
20260509000001 54 210 0.9 0.0 0.00 0.00 0.01 100 1011.3
20260508234559 54 312 2.6 0.0 0.00 0.00 0.01 100 1011.0
20260508233102 55 313 2.6 0.0 0.00 0.00 0.01 100 1011.0
20260508231622 55 263 0.9 0.0 0.00 0.00 0.01 100 1010.6
20260508230056 55 130 0.9 0.0 0.00 0.00 0.01 100 1010.5
20260508224539 55 306 1.7 0.0 0.00 0.00 0.01 100 1010.6
20260508223041 54 261 2.6 0.0 0.00 0.00 0.01 100 1010.8
20260508221534 55 185 2.6 0.0 0.00 0.00 0.01 100 1010.8
20260508220030 55 269 1.7 0.0 0.00 0.00 0.01 100 1010.6
20260508214522 55 311 5.2 0.0 0.00 0.00 0.01 100 1010.4
20260508213017 55 323 6.1 0.0 0.00 0.00 0.01 100 1010.6
20260508211513 56 282 9.6 0.0 0.00 0.00 0.00 100 1010.8
20260508210009 61 221 12.2 0.0 0.00 0.00 0.00 100 1010.6
20260508204506 63 239 6.1 0.0 0.00 0.00 0.00 100 1009.9
20260508203119 63 236 8.7 0.0 0.00 0.00 0.00 100 1009.8
20260508201557 63 271 6.1 0.0 0.00 0.00 0.00 100 1010.0
20260508200051 62 327 6.1 0.0 0.00 0.00 0.00 100 1010.0
20260508194553 62 321 5.2 0.0 0.00 0.00 0.00 100 1010.0
20260508193051 63 289 4.3 0.0 0.00 0.00 0.00 100 1010.1
20260508191540 63 286 3.5 0.0 0.00 0.00 0.00 100 1010.3
20260508190034 64 205 3.5 0.0 0.00 0.00 0.00 100 1010.3
20260508184528 64 201 5.2 0.0 0.00 0.00 0.00 100 1010.3
20260508183032 63 231 8.7 0.0 0.00 0.00 0.00 100 1010.6
20260508181520 61 260 10.4 0.0 0.00 0.00 0.00 100 1011.0
20260508180016 63 289 8.7 0.0 0.00 0.00 0.00 100 1011.1
20260508174513 62 245 7.8 0.0 0.00 0.00 0.00 100 1011.0